Location: Unspecified
(0.0000°N, 0.0000°E)
Time: 06:51:09
(UTC+00:00)

Transit 2A - Pass Details

Date: 30 May 2019
Orbit: 598 x 960 km, 66.7° (Epoch: 15 September)

Event Time Altitude Azimuth Distance (km) Brightness Sun altitude
Rises 04:40:00 0° 211° (SSW) 3,301 - -17.9°
Reaches altitude 10° 04:42:24 10° 216° (SW) 2,423 - -17.4°
Exits shadow 04:44:40 25° 227° (SW) 1,662 7.2 -16.9°
Maximum altitude 04:47:50 50° 290° (WNW) 1,103 6.5 -16.1°
Drops below altitude 10° 04:53:44 10° 5° (N) 2,617 9.1 -14.8°
Sets 04:56:25 0° 10° (N) 3,589 9.9 -14.2°
